Bat Cave, NC

4:35 PM EDT on July 27, 2016 (GMT -0400)
Asheville Regional

Weather History for KAVL - October, 2010

Change the Weather History Date:

Wednesday, October 20, 2010

  Actual Average Record
Temperature  
Mean Temperature 55 °F 55 °F  
Max Temperature 67 °F 67 °F 83 °F (1985)
Min Temperature 43 °F 43 °F 25 °F (1972)
Degree Days  
Heating Degree Days 10 10  
Month to date heating degree days 166 148  
Since 1 July heating degree days 182 205  
Cooling Degree Days 0 0  
Month to date cooling degree days 0 7  
Year to date cooling degree days 1205 859  
Growing Degree Days 7 (Base 50)    
Moisture  
Dew Point 48 °F    
Average Humidity 72    
Maximum Humidity 100    
Minimum Humidity 43    
Precipitation  
Precipitation 0.06 in 0.09 in 2.27 in (1877)
Month to date precipitation 0.07 1.91  
Year to date precipitation 34.64 37.33  
Snow  
Snow 0.00 in 0.00 in T in (1989)
Month to date snowfall 0.0 0.0  
Since 1 July snowfall 0.0 0.0  
Since 1 September snowfall 0.0 0.0  
Snow Depth 0.00 in    
Sea Level Pressure  
Sea Level Pressure 29.90 in    
Wind  
Wind Speed 6 mph (NNW)    
Max Wind Speed 16 mph    
Max Gust Speed 21 mph    
Visibility 9 miles    
Events Rain    
T = Trace of Precipitation, MM = Missing Value Source: NWS Daily Summary

Daily Weather History Graph

Daily Weather History Graph

Search for Another Location

Airport or City:

Trip Planner

Search our weather history database for the weather conditions in past years. The results will help you decide how hot, cold, wet, or windy it might be!

Date:

Astronomy

Oct. 20, 2010 Rise Set
Actual Time 7:40 AM EDT 6:48 PM EDT
Civil Twilight 7:14 AM EDT 7:14 PM EDT
Nautical Twilight 6:45 AM EDT 7:43 PM EDT
Astronomical Twilight 6:15 AM EDT 8:13 PM EDT
Moon 5:19 PM EDT (10/20) 5:25 AM EDT (10/20)
Length of Visible Light 11h 59m
Length of Day
11h 07m
Waxing Gibbous, 95% of the Moon is Illuminated
Oct 20
Waxing Gibbous
Oct 22
Full
Oct 30
Last Quarter
Nov 6
New
Nov 13
First Quarter

Hourly Weather History & Observations

Time (EDT) Temp. Windchill Dew Point Humidity Pressure Visibility Wind Dir Wind Speed Gust Speed Precip Events Conditions
12:54 AM 48.9 °F - 46.9 °F 93% 29.90 in 10.0 mi South 3.5 mph - N/A   Scattered Clouds
1:54 AM 48.9 °F - 46.9 °F 93% 29.88 in 10.0 mi Calm Calm - N/A   Clear
2:54 AM 52.0 °F - 48.0 °F 86% 29.88 in 10.0 mi Calm Calm - N/A   Overcast
3:54 AM 51.1 °F - 48.0 °F 89% 29.87 in 10.0 mi Calm Calm - N/A   Overcast
4:54 AM 54.0 °F - 50.0 °F 86% 29.86 in 7.0 mi NNW 9.2 mph - 0.01 in Rain Rain
5:54 AM 54.0 °F - 51.1 °F 90% 29.86 in 10.0 mi NNW 3.5 mph - 0.01 in Rain Light Rain
6:54 AM 54.0 °F - 52.0 °F 93% 29.87 in 6.0 mi North 5.8 mph - 0.03 in Rain Light Rain
7:54 AM 54.0 °F - 52.0 °F 93% 29.88 in 8.0 mi North 5.8 mph - 0.00 in Rain Light Rain
8:54 AM 54.0 °F - 53.1 °F 97% 29.91 in 6.0 mi North 4.6 mph - 0.01 in Rain Light Rain
9:47 AM 55.4 °F - 53.6 °F 94% 29.95 in 2.0 mi SSW 5.8 mph - 0.00 in   Mostly Cloudy
9:54 AM 55.0 °F - 53.1 °F 93% 29.91 in 2.0 mi SSW 4.6 mph - 0.00 in   Mostly Cloudy
10:01 AM 55.4 °F - 53.6 °F 94% 29.94 in 6.0 mi SSW 3.5 mph - N/A   Mostly Cloudy
10:54 AM 59.0 °F - 54.0 °F 83% 29.91 in 10.0 mi Calm Calm - N/A   Scattered Clouds
11:54 AM 59.0 °F - 53.1 °F 81% 29.91 in 10.0 mi NNW 11.5 mph - N/A   Mostly Cloudy
12:25 PM 60.8 °F - 53.6 °F 77% 29.95 in 10.0 mi North 11.5 mph 18.4 mph N/A   Mostly Cloudy
12:39 PM 60.8 °F - 53.6 °F 77% 29.95 in 10.0 mi North 15.0 mph 20.7 mph N/A   Overcast
12:54 PM 61.0 °F - 53.1 °F 75% 29.91 in 10.0 mi NNW 15.0 mph - N/A   Overcast
1:54 PM 64.0 °F - 51.1 °F 63% 29.88 in 10.0 mi North 10.4 mph 16.1 mph N/A   Partly Cloudy
2:54 PM 66.0 °F - 48.0 °F 52% 29.86 in 10.0 mi North 12.7 mph 17.3 mph N/A   Clear
3:54 PM 66.0 °F - 46.0 °F 48% 29.85 in 10.0 mi North 10.4 mph - N/A   Clear
4:54 PM 64.9 °F - 42.1 °F 43% 29.85 in 10.0 mi North 11.5 mph 18.4 mph N/A   Clear
5:54 PM 64.0 °F - 41.0 °F 43% 29.86 in 10.0 mi North 9.2 mph - N/A   Clear
6:54 PM 60.1 °F - 41.0 °F 49% 29.88 in 10.0 mi North 11.5 mph - N/A   Clear
7:54 PM 57.9 °F - 42.1 °F 56% 29.90 in 10.0 mi North 8.1 mph - N/A   Clear
8:54 PM 54.0 °F - 42.1 °F 64% 29.93 in 10.0 mi NW 3.5 mph - N/A   Clear
9:54 PM 51.8 °F - 41.0 °F 67% 29.96 in 10.0 mi North 3.5 mph - N/A   Clear
10:54 PM 48.9 °F - 42.1 °F 77% 29.94 in 10.0 mi Calm Calm - N/A   Clear
11:54 PM 44.1 °F 40.1 °F 42.1 °F 93% 29.94 in 10.0 mi NNW 6.9 mph - N/A   Clear